LFKCLFKJ

Guest
Details From LFKC - St Catherine
To LFKJ - Napoleon Bonaparte
Flight Number -
Tags generated
Created
Modified
Stats Distance 37 nm / 68 km
Max Altitude 2,700 ft / 823 m
Waypoints 3
Social Downloads 1
Likes 0
Share VATSIM

Download

Looking for another format? Having issues loading an existing format? Contact us
Advertisement - Login to hide

Notes

Basic altitude profile: - Ascent Rate: 500ft/min - Ascent Speed: 80kts - Cruise Altitude: 3000ft - Cruise Speed: 110kts - Descent Rate: 500ft/min - Descent Speed: 60kts Options: - Use NATs: no - Use PACOTS: no - Use low airways: yes - Use high airways: no

Route

LFKC VICCO LFKJ

ID Type Via Altitude (ft/m) Position (lat/lon) Dist (leg/tot) Name
O LFKC APT - 0 / 0 42.53076 / 8.79292 - / 0 nm St Catherine
VICCO FIX - 2,700 / 823 42.13944 / 8.81583 23 / 23 nm
O LFKJ APT - 0 / 0 41.92289 / 8.79959 13 / 36 nm Napoleon Bonaparte

Altitude Profile

Advertisement - Login to hide

LFKC

Details ICAO LFKC (CLY)
Name St Catherine
Region France
Timezone Europe/Paris (UTC+2.0)
Stats Elevation 208 ft / 63 m (AMSL)
Location 42.530800° 8.792980°
Runways 1
Magnetic Variation 2.498° E

METAR

LFKC 220500Z AUTO 14007KT 9999 OVC100 17/10 Q1013 BECMG 20012KT

Decode

TAF

TAF AMD TAF AMD LFKC 220459Z 2204/2303 20012KT 9999 FEW030 BKN080 TX22/2212Z TN11/2303Z BECMG 2208/2210 34010KT SCT030 TEMPO 2212/2220 BKN014 FEW030CB BECMG 2218/2220 18006KT

Decode

Departure Runways

ID Width Length Bearing (true/mag) Surface Threshold Overrun Markings Lighting
18 131 ft / 40 m 7,586 ft / 2,312 m 179.81° / 177.32° CONCRETE 0 ft / 0 m 0 ft / 0 m APP CENTERLINE EDGE THRESHOLD
36 131 ft / 40 m 7,586 ft / 2,312 m 359.81° / 357.32° CONCRETE 663 ft / 202 m 0 ft / 0 m APP CENTERLINE EDGE THRESHOLD ALSF-I

LFKJ

Details ICAO LFKJ (AJA)
Name Napoleon Bonaparte
Region France
Timezone Europe/Paris (UTC+2.0)
Stats Elevation 19 ft / 6 m (AMSL)
Location 41.921700° 8.801090°
Runways 1
Magnetic Variation 2.484° E

METAR

LFKJ 220500Z AUTO 05005KT 9999 SCT026 OVC034 14/11 Q1016 NOSIG

Decode

TAF

TAF LFKJ 220200Z 2203/2303 05006KT 9999 BKN050 BKN070 BECMG 2207/2209 24010KT TEMPO 2218/2221 BKN014

Decode

Destination Runways

ID Width Length Bearing (true/mag) Surface Threshold Overrun Markings Lighting
02 148 ft / 45 m 7,904 ft / 2,409 m 24.84° / 22.36° CONCRETE 0 ft / 0 m 161 ft / 49 m PREC-APP CENTERLINE EDGE THRESHOLD REIL-OMNI
20 148 ft / 45 m 7,904 ft / 2,409 m 204.85° / 202.37° CONCRETE 741 ft / 226 m 230 ft / 70 m PREC-APP CENTERLINE EDGE THRESHOLD REIL-OMNI

Approach Navaids

Runway Type Ident Frequency Range Bearing (true/mag) Slope Elevation
02 GS AC 110.30 MHz 27 nm / 50 km 24.85° / 22.37 ° 3.00° 19 ft / 6 m (AMSL)
02 DME AC 110.30 MHz 27 nm / 50 km - - 18 ft / 5 m (AMSL)
02 OM OM - - 24.94° / 22.46 ° - 17 ft / 5 m (AMSL)
02 LOC-ILS AC 110.30 MHz 27 nm / 50 km 24.85° / 22.37 ° - 19 ft / 6 m (AMSL)

Popular Alternatives